Regional Weather Roundup
Issued by NWS Charleston, SC

Current Version | Previous Version | Graphics & Text | Print | Product List | Glossary On
Versions: 1 2 3 4 5 6 7 8 9 10 11 12 13 14 15 16 17 18 19 20 21 22 23 24 25 26 27 28 29 30 31 32 33 34 35 36 37 38 39 40 41 42 43 44 45 46 47 48 49 50
000 ASUS42 KCHS 252225 RWRCHS REGIONAL WEATHER ROUNDUP NATIONAL WEATHER SERVICE CHARLESTON SC 500 PM EST TUE NOV 25 2014 NOTE: "FAIR" INDICATES FEW OR NO CLOUDS BELOW 12,000 FEET WITH NO SIGNIFICANT WEATHER AND/OR OBSTRUCTIONS TO VISIBILITY. NOT ALL STATIONS ARE QUALITY CONTROLLED BY THE NATIONAL WEATHER SERVICE. USE DATA WITH CAUTION...ESPECIALLY DEWPOINT OBSERVATIONS. SCZ027-030-031-034>040-042>050-252300- ...SOUTHEAST SOUTH CAROLINA... CITY SKY/WX TMP DP RH WIND PRES REMARKS N CHARLESTON LGT RAIN 64 62 93 NW9 29.99S WATERFRONT PRK N/A 63 N/A N/A E6 N/A MOUNT PLEASANT CLOUDY 64 64 100 CALM 30.00R JOHNS ISLAND CLOUDY 64 64 100 CALM 30.03R PINOPOLIS N/A 61 59 94 NE2 29.94R MONCKS CORNER RAIN 63 63 100 CALM 30.01R SUMMERVILLE RAIN 63 63 100 N3 30.02R BEAUFORT MCAS LGT RAIN 63 61 93 NW8 29.99F FOG BEAUFORT ARPT DRIZZLE 63 63 100 N3 30.00S HILTON HEAD IS PTCLDY 63 63 100 N8 30.01R WALTERBORO DRIZZLE 63 N/A N/A CALM 30.01F ALLENDALE CLOUDY 59 57 94 CALM 30.00F ...SOUTHERN MIDLANDS AND PEE DEE... CITY SKY/WX TMP DP RH WIND PRES REMARKS GEORGETOWN NOT AVBL KINGSTREE NOT AVBL ORANGEBURG CLOUDY 61 57 87 CALM 30.02R BARNWELL N/A 57 57 100 NE3 30.01F AIKEN LGT RAIN 54 54 100 NW3 30.03F MANNING NOT AVBL COLUMBIA CLOUDY 59 56 89 CALM 30.02S SUMTER LGT RAIN 61 57 88 CALM 30.01F FLORENCE LGT RAIN 62 60 93 N5 30.03R FOG MYRTLE BEACH LGT RAIN 64 61 88 N8 30.01F N MYRTLE BEACH LGT RAIN 64 62 93 E6 30.02R $$ GAZ063-065-086>088-099>101-113>116-118-119-134>141-150-252300- ...SOUTHEAST GEORGIA... CITY SKY/WX TMP DP RH WIND PRES REMARKS SAVANNAH ARPT CLOUDY 60 57 89 NW10 30.01R HUNTER AAF LGT RAIN 61 61 100 NW9 29.99R VSB 1 FORT STEWART LGT RAIN 57 55 94 N6 29.98F STATESBORO NOT AVBL SYLVANIA RAIN 56 55 94 CALM 30.01F CLAXTON DRIZZLE 55 55 100 CALM 30.01F ...CSRA...CENTRAL AND FAR SOUTHEAST GEORGIA... CITY SKY/WX TMP DP RH WIND PRES REMARKS THOMSON CLOUDY 54 54 100 CALM 30.07R AUGUSTA-BUSH LGT RAIN 55 53 93 N3 30.01F AUGUSTA-DANIEL LGT RAIN 54 51 90 N6 30.01F SWAINSBORO CLOUDY 57 57 100 NW3 30.03R VIDALIA CLOUDY 52 50 93 CALM 30.00F HAZLEHURST CLOUDY 51 51 99 CALM 29.99S ALMA LGT RAIN 50 49 96 VRB3 29.99F FOG WAYCROSS CLOUDY 58 55 91 NE7 29.98F JESUP RAIN 59 55 88 NE5 29.99F BAXLEY DRIZZLE 52 50 93 NE5 29.99F BRUNSWICK CLOUDY 63 61 94 CALM 30.00R SAINT SIMONS HVY RAIN 62 61 96 N6 29.98R FOG $$ SCZ027-028-034-036>038-045-046-048>050-GAZ119-141-252300- ...LAKE AND SUPPLEMENTAL COASTAL OBSERVATIONS... STATION/POSITION TIME TEMP WIND PRES WAVE SWELL AIR SEA DIR/SP/G HT/PER HT/PER/DIR (UTC) (F) (DEG/KT/KT) (MB) (FT/S) (FT/S/D) UPR LAKE MARION NOT AVBL WINYAH BAY 2200 63 50/ 3 1015.0S LAKE MURRAY 2200 57 CALM / 3 1016.6R ACE BASIN NERRS 2200 62 CALM 1016.0S FORT PULASKI 2200 62 40/ 3/ 4 1015.8F SAPELO ISLAND 2200 62 10/ 6 1015.0S $$ ANZ835-935-AMZ111-154-330-350-352-354-370-450-454-472-252300- ...C-MAN AND BUOY OBSERVATIONS... STATION/POSITION TIME TEMP WIND PRES WAVE SWELL AIR SEA DIR/SP/G HT/PER HT/PER/DIR (UTC) (F) (DEG/KT/KT) (MB) (FT/S) (FT/S/D) FOLLY BEACH CMAN 2200 61 40/ 3/ 4 1016.1R BUOY 41004 2200 68 73 60/ 8/ 8 1014.8F 4/ 9 3/ 9 BUOY 41008 2200 63 64 20/ 12/ 16 1014.9R 3/ 9 3/120/ 9 CAPERS NEARSHORE 2100 60 30/ 4/ 4 N/A FRIPP NEARSHORE NOT AVBL STATION/POSITION TIME TEMP WIND PRES WAVE SWELL AIR SEA DIR/SP/G HT/PER HT/PER/DIR (UTC) (F) (DEG/KT/KT) (MB) (FT/S) (FT/S/D) 5E ST. MARYS GA 2200 62 N/A 3/ 9 FRYING PAN BUOY 2200 65 69 100/ 6/ 8 1016.7F 3/ 8 3/170/ 8 BUOY 41025 2200 66 CALM / 2 1017.4F 5/ 8 CAPE LOOKOUT NC 2200 62 50/ 2/ 3 1016.9R BUOY 41002 2053 75 74 190/ 16/ 19 1018.0 6/ 7 3/120/10 BUOY 41010 2200 79 78 170/ 16/ 19 1014.6R 6/10 3/130/10 ST AUGUSTINE FL 2200 66 20/ 9/ 9 1014.0F $$

USA.gov is the U.S. government's official web portal to all federal, state and local government web resources and services.